2018-111R (43891 NORAD) Tracking and Keplerian Element Data

This shows tracking and keplerian element data for the satellite.

Feedback or suggestion? Click here.




ElementValue
Catalog43891
Name2018-111R
Epoch Orbit458
Epoch Day26.17717031
Epoch Year2019
RAAN295.2304
Inclination97.2998
Eccentricity0.0027859
Argument of Perigee138.5028
Mean Anonmoly221.8331
Mean Motion15.22828174
Decay Rate1.49E-06
L11 43891U 18111R 19026.17717031 .00000149 00000-0 92831-5 0 9994
L22 43891 97.2998 295.2304 0027859 138.5028 221.8331 15.22828174 4581

Live tracking and technical data element details for 2018-111R (NORAD 43891). 2018-111R can be tracked NOW for your location showing map with azimuth and elevation plus other details from your city location.

Track the satellite on the map from your city or location and see movement details for azimuth, elevation, latitude, longitude, range, height, and movement on the map or in text.







IsCatalogInMostPopularTable: catalog: 43891, numindb: 58
Update: records affected: 1



GetName: 43891 2018-111R

Hit Count: updated at: Mon, 17 Jun 2019 05:48:33 GMT